Hourly Data Report for November 04, 2019

All times are specified in Local Standard Time (LST). Add 1 hour to adjust for Daylight Saving Time where and when it is observed.

QUALICUM BEACH AIRPORT
BRITISH COLUMBIA
Current Station Operator: ECCC - MSC

49°20'14.000" N
124°23'38.000" W
58.20 m
1026562
71766
VOQ

Download Data

Hourly Data (November 2019)
Hourly Data Report for November 4, 2019
TIME Temp Definition
°C
Dew Point Definition
°C
Rel Hum Definition
%
Wind Dir Definition
10's deg

Wind Spd Definition
km/h
Visibility Definition
km
Stn Press Definition
kPa
Hmdx Definition


Wind Chill Definition


Weather Definition


00:00 10.3 8.3 87 29 2   101.61     LegendNANA
01:00 9.7 8.2 91 21 4   101.60     LegendNANA
02:00 9.9 8.4 90 0 1   101.61     LegendNANA
03:00 9.8 8.4 91 3 4   101.62     LegendNANA
04:00 9.5 8.6 94 10 4   101.62     LegendNANA
05:00 9.3 8.6 95   0   101.62     LegendNANA
06:00 9.2 8.5 95 4 3   101.63     LegendNANA
07:00 8.6 8.0 96 9 4   101.65     LegendNANA
08:00 8.7 8.1 97 14 3   101.66     LegendNANA
09:00 8.7 8.1 97 8 7   101.69     LegendNANA
10:00 8.6 8.1 96 10 7   101.70     LegendNANA
11:00 9.3 8.5 95 13 2   101.71     LegendNANA
12:00 10.2 8.5 89 7 5   101.68     LegendNANA
13:00 10.1 8.3 89 6 5   101.64     LegendNANA
14:00 10.7 8.7 88 0 1   101.61     LegendNANA
15:00 11.0 8.7 86 35 4   101.59     LegendNANA
16:00 10.8 8.7 87 32 5   101.58     LegendNANA
17:00 10.6 8.7 88 32 5   101.58     LegendNANA
18:00 10.4 8.7 90 29 2   101.56     LegendNANA
19:00 10.6 8.6 88 23 3   101.57     LegendNANA
20:00 10.2 8.6 90 27 2   101.57     LegendNANA
21:00 10.9 7.9 82 22 4   101.58     LegendNANA
22:00 10.8 7.7 81 23 4   101.62     LegendNANA
23:00 10.5 8.0 85 24 4   101.61     LegendNANA

Notes on Data Quality.

Legend

  • E = Estimated
  • M = Missing
  • NA = Not Available
Date modified: